Time,TemperatureF,DewpointF,PressureIn,WindDirection,WindDirectionDegrees,WindSpeedMPH,WindSpeedGustMPH,Humidity,HourlyPrecipIn,Conditions,Clouds,dailyrainin,SolarRadiationWatts/m^2,SoftwareType,DateUTC
2013-06-06 00:32:00,53.0,16.0,30.20,ENE,73,1.0,3.0,23,-99.99,,,-99.99,1.000000,,2013-06-06 07:32:00,
2013-06-06 00:42:00,54.0,19.0,30.20,South,179,0.0,4.0,25,-99.99,,,-99.99,0.000000,,2013-06-06 07:42:00,
2013-06-06 00:52:00,54.0,19.0,30.20,South,179,0.0,4.0,25,-99.99,,,-99.99,0.000000,,2013-06-06 07:52:00,
2013-06-06 01:02:00,51.0,23.0,30.20,SSE,152,4.0,7.0,34,-99.99,,,-99.99,1.000000,,2013-06-06 08:02:00,
2013-06-06 01:12:00,49.0,25.0,30.20,SE,142,7.0,9.0,38,-99.99,,,-99.99,1.000000,,2013-06-06 08:12:00,
2013-06-06 01:22:00,49.0,25.0,30.20,SE,142,7.0,9.0,38,-99.99,,,-99.99,1.000000,,2013-06-06 08:22:00,
2013-06-06 01:32:00,49.0,25.0,30.19,SE,142,7.0,9.0,39,-99.99,,,-99.99,1.000000,,2013-06-06 08:32:00,
2013-06-06 01:42:00,49.0,25.0,30.19,SE,142,7.0,9.0,39,-99.99,,,-99.99,1.000000,,2013-06-06 08:42:00,
2013-06-06 01:52:00,49.0,23.0,30.19,SE,146,8.0,10.0,36,-99.99,,,-99.99,1.000000,,2013-06-06 08:52:00,
2013-06-06 02:02:00,49.0,23.0,30.19,SE,146,8.0,10.0,36,-99.99,,,-99.99,1.000000,,2013-06-06 09:02:00,
2013-06-06 02:12:00,50.0,21.0,30.20,SE,140,7.0,9.0,32,-99.99,,,-99.99,1.000000,,2013-06-06 09:12:00,
2013-06-06 02:22:00,49.0,22.0,30.20,SSE,149,7.0,10.0,34,-99.99,,,-99.99,0.000000,,2013-06-06 09:22:00,
2013-06-06 02:33:00,49.0,21.0,30.19,SSE,148,9.0,13.0,32,-99.99,,,-99.99,0.000000,,2013-06-06 09:33:00,
2013-06-06 02:43:00,48.0,21.0,30.19,SSE,150,10.0,13.0,34,-99.99,,,-99.99,0.000000,,2013-06-06 09:43:00,
2013-06-06 02:53:00,46.0,21.0,30.20,SSE,149,10.0,13.0,36,-99.99,,,-99.99,0.000000,,2013-06-06 09:53:00,
2013-06-06 03:03:00,46.0,21.0,30.20,SSE,149,10.0,13.0,36,-99.99,,,-99.99,0.000000,,2013-06-06 10:03:00,
2013-06-06 03:12:00,47.0,20.0,30.20,SSE,150,11.0,14.0,34,-99.99,,,-99.99,0.000000,,2013-06-06 10:12:00,
2013-06-06 03:22:00,47.0,20.0,30.20,SSE,150,11.0,14.0,34,-99.99,,,-99.99,0.000000,,2013-06-06 10:22:00,
2013-06-06 03:33:00,45.0,22.0,30.20,SSE,149,8.0,10.0,41,-99.99,,,-99.99,0.000000,,2013-06-06 10:33:00,
2013-06-06 03:42:00,45.0,22.0,30.20,SSE,149,8.0,10.0,41,-99.99,,,-99.99,0.000000,,2013-06-06 10:42:00,
2013-06-06 03:52:00,44.0,21.0,30.20,SSE,148,9.0,11.0,40,-99.99,,,-99.99,1.000000,,2013-06-06 10:52:00,
2013-06-06 04:02:00,44.0,21.0,30.20,SSE,148,9.0,11.0,40,-99.99,,,-99.99,1.000000,,2013-06-06 11:02:00,
2013-06-06 04:12:00,44.0,23.0,30.20,SE,145,7.0,13.0,43,-99.99,,,-99.99,1.000000,,2013-06-06 11:12:00,
2013-06-06 04:22:00,43.0,22.0,30.20,SE,142,8.0,11.0,43,-99.99,,,-99.99,1.000000,,2013-06-06 11:22:00,
2013-06-06 04:32:00,43.0,22.0,30.20,SE,142,8.0,11.0,43,-99.99,,,-99.99,1.000000,,2013-06-06 11:32:00,
2013-06-06 04:42:00,44.0,22.0,30.21,SSE,151,10.0,12.0,40,-99.99,,,-99.99,0.000000,,2013-06-06 11:42:00,
2013-06-06 04:52:00,44.0,22.0,30.21,SSE,151,10.0,12.0,40,-99.99,,,-99.99,0.000000,,2013-06-06 11:52:00,
2013-06-06 05:02:00,45.0,21.0,30.20,SSE,151,10.0,13.0,39,-99.99,,,-99.99,0.000000,,2013-06-06 12:02:00,
2013-06-06 05:10:00,42.0,21.0,30.21,SSE,158,12.0,17.0,44,-99.99,,,-99.99,7.000000,,2013-06-06 12:10:00,
2013-06-06 05:12:00,43.0,21.0,30.21,SSE,152,10.0,13.0,41,-99.99,,,-99.99,0.000000,,2013-06-06 12:12:00,
2013-06-06 05:22:00,41.0,21.0,30.21,SSE,150,9.0,12.0,44,-99.99,,,-99.99,0.000000,,2013-06-06 12:22:00,
2013-06-06 05:32:00,41.0,21.0,30.21,SSE,150,9.0,12.0,44,-99.99,,,-99.99,0.000000,,2013-06-06 12:32:00,
2013-06-06 05:42:00,41.0,22.0,30.21,SSE,156,12.0,16.0,47,-99.99,,,-99.99,1.000000,,2013-06-06 12:42:00,
2013-06-06 05:52:00,42.0,21.0,30.21,SSE,158,12.0,17.0,44,-99.99,,,-99.99,7.000000,,2013-06-06 12:52:00,
2013-06-06 06:03:00,42.0,21.0,30.21,SSE,158,12.0,17.0,44,-99.99,,,-99.99,7.000000,,2013-06-06 13:03:00,
2013-06-06 06:42:00,42.0,22.0,30.22,SSE,155,13.0,16.0,44,-99.99,,,-99.99,87.000000,,2013-06-06 13:42:00,
2013-06-06 06:52:00,44.0,23.0,30.22,SSE,152,13.0,16.0,42,-99.99,,,-99.99,133.000000,,2013-06-06 13:52:00,
2013-06-06 07:00:00,52.0,25.0,30.23,South,170,8.0,11.0,35,-99.99,,,-99.99,302.000000,,2013-06-06 14:00:00,
2013-06-06 07:02:00,44.0,23.0,30.22,SSE,152,13.0,16.0,42,-99.99,,,-99.99,133.000000,,2013-06-06 14:02:00,
2013-06-06 07:12:00,47.0,23.0,30.23,SSE,161,11.0,16.0,38,-99.99,,,-99.99,199.000000,,2013-06-06 14:12:00,
2013-06-06 07:22:00,47.0,23.0,30.23,SSE,161,11.0,16.0,38,-99.99,,,-99.99,199.000000,,2013-06-06 14:22:00,
2013-06-06 07:32:00,52.0,25.0,30.23,South,170,8.0,11.0,35,-99.99,,,-99.99,302.000000,,2013-06-06 14:32:00,
2013-06-06 07:40:00,60.0,27.0,30.23,SSE,165,5.0,8.0,28,-99.99,,,-99.99,440.000000,,2013-06-06 14:40:00,
2013-06-06 07:42:00,52.0,25.0,30.23,South,170,8.0,11.0,35,-99.99,,,-99.99,302.000000,,2013-06-06 14:42:00,
2013-06-06 07:52:00,52.0,25.0,30.23,South,170,8.0,11.0,35,-99.99,,,-99.99,302.000000,,2013-06-06 14:52:00,
2013-06-06 08:12:00,58.0,27.0,30.23,SSE,165,6.0,8.0,31,-99.99,,,-99.99,404.000000,,2013-06-06 15:12:00,
2013-06-06 08:22:00,60.0,27.0,30.23,SSE,165,5.0,8.0,28,-99.99,,,-99.99,440.000000,,2013-06-06 15:22:00,
2013-06-06 08:32:00,60.0,27.0,30.23,SSE,165,5.0,8.0,28,-99.99,,,-99.99,440.000000,,2013-06-06 15:32:00,
2013-06-06 09:03:00,67.0,26.0,30.23,South,170,2.0,5.0,21,-99.99,,,-99.99,579.000000,,2013-06-06 16:03:00,
2013-06-06 09:12:00,69.0,26.0,30.23,SSW,203,1.0,4.0,20,-99.99,,,-99.99,612.000000,,2013-06-06 16:12:00,
2013-06-06 09:22:00,69.0,26.0,30.23,SSW,203,1.0,4.0,20,-99.99,,,-99.99,612.000000,,2013-06-06 16:22:00,
2013-06-06 09:33:00,70.0,26.0,30.23,NNW,333,4.0,7.0,19,-99.99,,,-99.99,711.000000,,2013-06-06 16:33:00,
2013-06-06 09:40:00,72.0,26.0,30.22,NNW,327,7.0,10.0,18,-99.99,,,-99.99,830.000000,,2013-06-06 16:40:00,
2013-06-06 09:43:00,70.0,26.0,30.23,NNW,333,4.0,7.0,19,-99.99,,,-99.99,711.000000,,2013-06-06 16:43:00,
2013-06-06 09:52:00,70.0,26.0,30.23,NW,323,3.0,6.0,19,-99.99,,,-99.99,742.000000,,2013-06-06 16:52:00,
2013-06-06 10:03:00,70.0,26.0,30.23,NW,323,3.0,6.0,19,-99.99,,,-99.99,742.000000,,2013-06-06 17:03:00,
2013-06-06 10:13:00,71.0,27.0,30.23,NNW,332,4.0,9.0,19,-99.99,,,-99.99,773.000000,,2013-06-06 17:13:00,
2013-06-06 10:22:00,72.0,27.0,30.23,NNW,336,7.0,11.0,19,-99.99,,,-99.99,801.000000,,2013-06-06 17:22:00,
2013-06-06 10:32:00,72.0,26.0,30.22,NNW,327,7.0,10.0,18,-99.99,,,-99.99,830.000000,,2013-06-06 17:32:00,
2013-06-06 11:22:00,76.0,25.0,30.21,NNW,330,9.0,17.0,15,-99.99,,,-99.99,955.000000,,2013-06-06 18:22:00,
2013-06-06 11:33:00,76.0,25.0,30.21,NW,314,10.0,16.0,15,-99.99,,,-99.99,974.000000,,2013-06-06 18:33:00,
2013-06-06 11:43:00,77.0,23.0,30.21,WNW,303,13.0,19.0,13,-99.99,,,-99.99,1011.000000,,2013-06-06 18:43:00,
2013-06-06 11:52:00,77.0,23.0,30.21,WNW,303,13.0,19.0,13,-99.99,,,-99.99,1011.000000,,2013-06-06 18:52:00,
2013-06-06 12:02:00,78.0,21.0,30.21,NW,325,15.0,21.0,12,-99.99,,,-99.99,1027.000000,,2013-06-06 19:02:00,
2013-06-06 12:12:00,79.0,22.0,30.21,NW,321,15.0,22.0,12,-99.99,,,-99.99,1040.000000,,2013-06-06 19:12:00,
2013-06-06 12:23:00,78.0,23.0,30.21,North,358,10.0,18.0,13,-99.99,,,-99.99,1053.000000,,2013-06-06 19:23:00,
2013-06-06 12:33:00,78.0,23.0,30.20,NNW,332,8.0,15.0,13,-99.99,,,-99.99,1064.000000,,2013-06-06 19:33:00,
2013-06-06 12:42:00,79.0,24.0,30.20,NNW,340,9.0,19.0,13,-99.99,,,-99.99,1072.000000,,2013-06-06 19:42:00,
2013-06-06 12:52:00,79.0,24.0,30.20,NNW,328,9.0,14.0,13,-99.99,,,-99.99,1081.000000,,2013-06-06 19:52:00,
2013-06-06 13:03:00,80.0,23.0,30.20,NW,311,10.0,18.0,12,-99.99,,,-99.99,1088.000000,,2013-06-06 20:03:00,
2013-06-06 13:13:00,80.0,23.0,30.19,NNW,348,6.0,17.0,12,-99.99,,,-99.99,1096.000000,,2013-06-06 20:13:00,
2013-06-06 13:22:00,80.0,23.0,30.19,NNW,348,6.0,17.0,12,-99.99,,,-99.99,1096.000000,,2013-06-06 20:22:00,
2013-06-06 13:33:00,81.0,22.0,30.18,NNW,328,8.0,18.0,11,-99.99,,,-99.99,1097.000000,,2013-06-06 20:33:00,
2013-06-06 13:42:00,81.0,22.0,30.18,NNW,328,8.0,18.0,11,-99.99,,,-99.99,1097.000000,,2013-06-06 20:42:00,
2013-06-06 13:52:00,82.0,22.0,30.18,NW,317,8.0,17.0,11,-99.99,,,-99.99,1096.000000,,2013-06-06 20:52:00,
2013-06-06 14:03:00,82.0,22.0,30.18,NW,317,8.0,17.0,11,-99.99,,,-99.99,1096.000000,,2013-06-06 21:03:00,
2013-06-06 14:12:00,81.0,22.0,30.18,NW,323,8.0,13.0,11,-99.99,,,-99.99,1084.000000,,2013-06-06 21:12:00,
2013-06-06 14:22:00,81.0,22.0,30.18,NW,323,8.0,13.0,11,-99.99,,,-99.99,1084.000000,,2013-06-06 21:22:00,
2013-06-06 14:33:00,82.0,22.0,30.17,NNE,26,3.0,10.0,11,-99.99,,,-99.99,1074.000000,,2013-06-06 21:33:00,
2013-06-06 14:43:00,82.0,20.0,30.17,NNW,338,8.0,15.0,10,-99.99,,,-99.99,1064.000000,,2013-06-06 21:43:00,
2013-06-06 14:53:00,83.0,21.0,30.16,North,5,8.0,16.0,10,-99.99,,,-99.99,1035.000000,,2013-06-06 21:53:00,
2013-06-06 15:02:00,83.0,21.0,30.16,North,5,8.0,16.0,10,-99.99,,,-99.99,1035.000000,,2013-06-06 22:02:00,
2013-06-06 15:13:00,82.0,22.0,30.16,ENE,66,4.0,12.0,11,-99.99,,,-99.99,1016.000000,,2013-06-06 22:13:00,
2013-06-06 15:23:00,83.0,23.0,30.15,NNW,345,10.0,21.0,11,-99.99,,,-99.99,1001.000000,,2013-06-06 22:23:00,
2013-06-06 15:33:00,83.0,21.0,30.15,NNW,333,7.0,12.0,10,-99.99,,,-99.99,984.000000,,2013-06-06 22:33:00,
2013-06-06 15:43:00,83.0,23.0,30.15,NW,307,6.0,13.0,11,-99.99,,,-99.99,962.000000,,2013-06-06 22:43:00,
2013-06-06 15:52:00,84.0,24.0,30.14,NW,313,8.0,16.0,11,-99.99,,,-99.99,922.000000,,2013-06-06 22:52:00,
2013-06-06 16:02:00,84.0,24.0,30.14,NW,313,8.0,16.0,11,-99.99,,,-99.99,922.000000,,2013-06-06 23:02:00,
2013-06-06 16:12:00,85.0,22.0,30.14,NE,45,5.0,10.0,10,-99.99,,,-99.99,876.000000,,2013-06-06 23:12:00,
2013-06-06 16:22:00,85.0,22.0,30.14,NE,45,5.0,10.0,10,-99.99,,,-99.99,876.000000,,2013-06-06 23:22:00,
2013-06-06 16:33:00,86.0,23.0,30.13,NE,48,3.0,9.0,10,-99.99,,,-99.99,854.000000,,2013-06-06 23:33:00,
2013-06-06 16:42:00,84.0,22.0,30.12,North,8,6.0,11.0,10,-99.99,,,-99.99,801.000000,,2013-06-06 23:42:00,
2013-06-06 16:52:00,85.0,22.0,30.12,SW,217,3.0,8.0,10,-99.99,,,-99.99,773.000000,,2013-06-06 23:52:00,
2013-06-06 17:02:00,85.0,22.0,30.12,SW,217,3.0,8.0,10,-99.99,,,-99.99,773.000000,,2013-06-07 00:02:00,
2013-06-06 17:12:00,84.0,22.0,30.12,West,262,5.0,17.0,10,-99.99,,,-99.99,738.000000,,2013-06-07 00:12:00,
2013-06-06 17:22:00,84.0,22.0,30.11,NE,37,3.0,8.0,10,-99.99,,,-99.99,630.000000,,2013-06-07 00:22:00,
2013-06-06 17:32:00,86.0,23.0,30.11,NE,41,2.0,7.0,10,-99.99,,,-99.99,694.000000,,2013-06-07 00:32:00,
2013-06-06 17:42:00,86.0,23.0,30.11,NE,41,2.0,7.0,10,-99.99,,,-99.99,694.000000,,2013-06-07 00:42:00,
2013-06-06 17:52:00,83.0,23.0,30.11,NNE,17,7.0,14.0,11,-99.99,,,-99.99,168.000000,,2013-06-07 00:52:00,
2013-06-06 18:02:00,83.0,23.0,30.11,NNE,17,7.0,14.0,11,-99.99,,,-99.99,168.000000,,2013-06-07 01:02:00,
2013-06-06 18:12:00,83.0,23.0,30.11,East,90,2.0,6.0,11,-99.99,,,-99.99,81.000000,,2013-06-07 01:12:00,
2013-06-06 18:22:00,84.0,24.0,30.10,East,95,1.0,4.0,11,-99.99,,,-99.99,122.000000,,2013-06-07 01:22:00,
2013-06-06 18:32:00,84.0,22.0,30.10,NW,325,3.0,9.0,10,-99.99,,,-99.99,82.000000,,2013-06-07 01:32:00,
2013-06-06 18:42:00,84.0,22.0,30.10,NW,325,3.0,9.0,10,-99.99,,,-99.99,82.000000,,2013-06-07 01:42:00,
2013-06-06 18:52:00,84.0,24.0,30.10,NW,318,7.0,12.0,11,-99.99,,,-99.99,79.000000,,2013-06-07 01:52:00,
2013-06-06 19:02:00,84.0,24.0,30.10,NW,318,7.0,12.0,11,-99.99,,,-99.99,79.000000,,2013-06-07 02:02:00,
2013-06-06 19:12:00,83.0,23.0,30.10,WNW,298,10.0,15.0,11,-99.99,,,-99.99,65.000000,,2013-06-07 02:12:00,
2013-06-06 19:22:00,83.0,23.0,30.10,WNW,298,10.0,15.0,11,-99.99,,,-99.99,65.000000,,2013-06-07 02:22:00,
2013-06-06 19:32:00,82.0,24.0,30.10,NW,324,10.0,12.0,12,-99.99,,,-99.99,41.000000,,2013-06-07 02:32:00,
2013-06-06 19:42:00,82.0,24.0,30.10,NW,324,10.0,12.0,12,-99.99,,,-99.99,41.000000,,2013-06-07 02:42:00,
2013-06-06 19:52:00,83.0,25.0,30.10,NNW,338,10.0,14.0,12,-99.99,,,-99.99,45.000000,,2013-06-07 02:52:00,
2013-06-06 20:02:00,82.0,25.0,30.11,NNW,334,10.0,13.0,12,-99.99,,,-99.99,33.000000,,2013-06-07 03:02:00,
2013-06-06 20:12:00,81.0,23.0,30.11,NW,312,5.0,9.0,12,-99.99,,,-99.99,20.000000,,2013-06-07 03:12:00,
2013-06-06 20:22:00,79.0,22.0,30.11,NW,316,7.0,10.0,12,-99.99,,,-99.99,13.000000,,2013-06-07 03:22:00,
2013-06-06 20:33:00,76.0,23.0,30.11,NW,305,7.0,9.0,14,-99.99,,,-99.99,7.000000,,2013-06-07 03:33:00,
2013-06-06 20:43:00,76.0,23.0,30.11,NW,305,7.0,9.0,14,-99.99,,,-99.99,7.000000,,2013-06-07 03:43:00,
2013-06-06 20:53:00,74.0,21.0,30.11,WNW,282,6.0,9.0,14,-99.99,,,-99.99,7.000000,,2013-06-07 03:53:00,
2013-06-06 21:03:00,74.0,21.0,30.11,WNW,282,6.0,9.0,14,-99.99,,,-99.99,7.000000,,2013-06-07 04:03:00,
2013-06-06 21:12:00,73.0,23.0,30.12,North,349,3.0,6.0,15,-99.99,,,-99.99,0.000000,,2013-06-07 04:12:00,
2013-06-06 21:22:00,73.0,23.0,30.12,North,349,3.0,6.0,15,-99.99,,,-99.99,0.000000,,2013-06-07 04:22:00,
2013-06-06 21:33:00,72.0,25.0,30.13,NNE,14,2.0,4.0,17,-99.99,,,-99.99,0.000000,,2013-06-07 04:33:00,
2013-06-06 21:42:00,72.0,25.0,30.13,NNE,14,2.0,4.0,17,-99.99,,,-99.99,0.000000,,2013-06-07 04:42:00,
2013-06-06 21:53:00,70.0,25.0,30.14,WNW,289,1.0,6.0,18,-99.99,,,-99.99,0.000000,,2013-06-07 04:53:00,
2013-06-06 22:02:00,70.0,25.0,30.14,WNW,289,1.0,6.0,18,-99.99,,,-99.99,0.000000,,2013-06-07 05:02:00,
2013-06-06 22:12:00,70.0,24.0,30.15,WNW,301,4.0,6.0,17,-99.99,,,-99.99,0.000000,,2013-06-07 05:12:00,
2013-06-06 22:22:00,70.0,23.0,30.15,WNW,298,4.0,6.0,17,-99.99,,,-99.99,0.000000,,2013-06-07 05:22:00,
2013-06-06 22:32:00,69.0,24.0,30.15,WNW,299,2.0,5.0,18,-99.99,,,-99.99,0.000000,,2013-06-07 05:32:00,
2013-06-06 22:42:00,69.0,24.0,30.15,WNW,299,2.0,5.0,18,-99.99,,,-99.99,0.000000,,2013-06-07 05:42:00,
2013-06-06 22:52:00,70.0,23.0,30.16,NW,306,3.0,5.0,17,-99.99,,,-99.99,0.000000,,2013-06-07 05:52:00,
2013-06-06 23:00:00,59.0,22.0,30.16,SE,124,6.0,7.0,24,-99.99,,,-99.99,0.000000,,2013-06-07 06:00:00,
2013-06-06 23:02:00,70.0,24.0,30.16,WNW,303,5.0,6.0,18,-99.99,,,-99.99,0.000000,,2013-06-07 06:02:00,
2013-06-06 23:12:00,68.0,23.0,30.16,SSW,208,2.0,5.0,18,-99.99,,,-99.99,0.000000,,2013-06-07 06:12:00,
2013-06-06 23:22:00,65.0,24.0,30.16,SE,124,4.0,6.0,21,-99.99,,,-99.99,0.000000,,2013-06-07 06:22:00,
2013-06-06 23:32:00,62.0,23.0,30.16,SE,125,5.0,7.0,22,-99.99,,,-99.99,0.000000,,2013-06-07 06:32:00,
2013-06-06 23:42:00,60.0,22.0,30.16,SE,127,6.0,7.0,23,-99.99,,,-99.99,0.000000,,2013-06-07 06:42:00,
2013-06-06 23:52:00,59.0,22.0,30.16,SE,124,6.0,7.0,24,-99.99,,,-99.99,0.000000,,2013-06-07 06:52:00,